User: anonymous   Login
Location: Bouchavesnes-Bergen
(49.9859°N, 2.9203°E)
Time: 17:28:05
(UTC+00:00)
Language:

SL-16 R/B - Orbit

View from above orbital plane
View from above orbital plane
View from above satellite
View from above satellite

Ground track
Ground track

The orbit data is extracted from the following two-line orbital elements,

1 28353U 04021B   21127.93102681 -.00000254  00000-0 -10786-3 0  9999
2 28353  70.9989 338.8002 0006432 221.0362 139.0277 14.14240472873028
Epoch (UTC): 07 May 2021 22:20:40
Eccentricity: 0.0006432
inclination: 70.9989°
perigee height: 840 km
apogee height: 849 km
right ascension of ascending node: 338.8002°
argument of perigee: 221.0362°
revolutions per day: 14.14240472
mean anomaly at epoch: 139.0277°
orbit number at epoch: 87302

The dashed part of the orbit path shows where the satellite is in the earth's shadow,  

DLR